sat.trackr.live / text

‹ back to catalog

STARLINK-33807

NORAD 63518 · 2025-071AB

PAYLOAD ACTIVE UNKNOWN

§ Identity

Operator
Country
US
Launch date
2025-04-07
Launch site
AFWTR
Launch vehicle
Mass (kg)
RCS (m²)

Purposes: comms

External: N2YO · Heavens-Above · Gunter

§ Orbital elements

Epoch: 2026-09-20T14:25:17.348736Z

Period
93.85 min
Inclination
53.1609°
Eccentricity
0.0001198
Mean motion
15.34393780 rev/d
Perigee alt
461.9 km
Apogee alt
463.5 km
Semi-major
6,840.9 km
B*
3.8732e-4
RAAN
309.4310°
Arg perigee
90.4783°
Mean anomaly
269.6357°
Rev number
8,268

§ Raw data

STARLINK-338071 63518U 25071AB  26263.60089524  .00012730  00000+0  38732-3 0  99992 63518  53.1609 309.4310 0001198  90.4783 269.6357 15.34393780 82684

JSON: /api/v1/satellites/63518 · /tle

For live sub-satellite position, see the globe view (requires WebGL).

§ Visibility from observer

Set your observer location to see the next 7 days of passes ≥ 10°. The values pass through the URL so the page stays shareable.

No JS? Fill the form by hand. The geolocation button needs JavaScript.